Location: Darr Branch
(32.1532°N, 97.3853°W)
Time: 10:08:14
(UTC+00:00)

Hubble Space Telescope - Pass Details

Date: 18 November 2025
Orbit: 480 x 483 km, 28.5° (Epoch: 07 December)

Event Time Altitude Azimuth Distance (km) Brightness Sun altitude
Exits shadow 12:02:44 - 234° (SW) 1,756 3.0 -12.6°
Reaches altitude 10° 12:03:03 10° 233° (SW) 1,645 2.9 -12.5°
Maximum altitude 12:06:28 33° 167° (SSE) 822 2.0 -11.8°
Drops below altitude 10° 12:09:55 10° 102° (ESE) 1,650 4.8 -11.1°
Sets 12:12:15 0° 93° (E) 2,531 6.0 -10.7°
